Location: Sternwarte Stuttgart
(48.7670°N, 9.1830°E)
Time: 06:05:26
(UTC+02:00)

Cosmos 2297 Rocket - Pass Details

Date: 24 January 2019
Orbit: 841 x 842 km, 71.0° (Epoch: 22 October)

Event Time Altitude Azimuth Distance (km) Brightness Sun altitude
Exits shadow 05:23:31 12° 350° (N) 2,334 4.4 -26.1°
Maximum altitude 05:27:55 28° 46° (NE) 1,533 3.9 -25.4°
Drops below altitude 10° 05:32:44 10° 105° (ESE) 2,460 5.6 -24.6°
Sets 05:35:31 0° 117° (ESE) 3,391 6.4 -24.1°
